Location: ??????????
(44.2167°N, 135.5333°E)
Time: 21:35:57
(UTC+00:00)

USA 234 - Pass Details

Date: 15 June 2025
Orbit: 1097 x 1111 km, 123.0° (Epoch: 19 June)

Event Time Altitude Azimuth Distance (km) Brightness Sun altitude
Rises 14:58:42 0° 51° (NE) 3,919 6.7 -22.4°
Reaches altitude 10° 15:01:14 10° 56° (NE) 2,960 5.9 -22.4°
Maximum altitude 15:07:39 57° 134° (SE) 1,281 3.3 -22.4°
Enters shadow 15:09:43 41° 188° (S) 1,543 3.5 -22.4°
